Waarnemingen

Advertentie
Mijn weer
Auch, Frankrijk (7622): temperatuur & dauwpunt: 15.01.2017 11:00:00 - 21.01.2017 11:00:00 (CET)Auch, Frankrijk (7622): temperatuur 5cm: 15.01.2017 11:00:00 - 21.01.2017 11:00:00 (CET)Auch, Frankrijk (7622): temperatuur -20cm & temperatuur -100cm: 15.01.2017 11:00:00 - 21.01.2017 11:00:00 (CET)Auch, Frankrijk (7622): windsnelheid & windstoten: 15.01.2017 11:00:00 - 21.01.2017 11:00:00 (CET)Auch, Frankrijk (7622): windrichting: 15.01.2017 11:00:00 - 21.01.2017 11:00:00 (CET)Auch, Frankrijk (7622): luchtdruk: 15.01.2017 11:00:00 - 21.01.2017 11:00:00 (CET)Auch, Frankrijk (7622): zicht: 15.01.2017 11:00:00 - 21.01.2017 11:00:00 (CET)Auch, Frankrijk (7622): Zonneschijnduur: 15.01.2017 11:00:00 - 21.01.2017 11:00:00 (CET)Auch, Frankrijk (7622): neerslag: 15.01.2017 11:00:00 - 21.01.2017 11:00:00 (CET)
Datum & Tijd tt [°C] td [°C] tt 5cm [°C] tt -20cm [°C] tt -100cm [°C] ff [km/u] ff [kn] fx [km/u] fx [kn] dd ppp [hPa] vv [km] sd [min] rr [mm]
21.01.2017 11:00:00 2,1 0,5 2,8 2,3 8,7 0 0 4 2 N 1023,8 13 60 0,0
21.01.2017 10:00:00 -1,3 -1,7 -6,1 2,4 8,7 0 0 2 1 N 1024,0 9 56 0,0
21.01.2017 09:00:00 -4,6 -5,3 -8,0 2,4 8,7 0 0 0 0 N 1024,1 10 0 0,0
21.01.2017 08:00:00 -4,5 -5,2 -7,7 2,4 8,8 0 0 3 2 N 1023,9 8 0 0,0
21.01.2017 07:00:00 -4,1 -4,6 -7,5 2,4 8,8 0 0 4 2 N 1023,7 8 0 0,0
21.01.2017 06:00:00 -4,0 -4,7 -7,3 2,4 8,8 0 0 4 2 N 1023,7 9 0 0,0
21.01.2017 05:00:00 -3,9 -4,7 -7,2 2,4 8,8 0 0 3 2 N 1024,0 8 0 0,0
21.01.2017 04:00:00 -3,6 -4,3 -7,0 2,4 8,8 0 0 5 3 N 1024,4 6 0 0,0
21.01.2017 03:00:00 -3,0 -3,5 -6,9 2,4 8,8 0 0 5 3 N 1024,6 7 0 0,0
21.01.2017 02:00:00 -3,2 -3,7 -6,9 2,4 8,8 0 0 3 1 N 1024,6 5 0 0,0
21.01.2017 01:00:00 -2,7 -3,4 -6,2 2,4 8,9 0 0 3 2 N 1024,8 6 0 0,0
21.01.2017 00:00:00 -2,3 -2,9 -5,9 2,4 8,9 0 0 5 3 N 1025,1 8 0 0,0
20.01.2017 23:00:00 -1,6 -2,3 -5,4 2,4 8,9 0 0 3 2 N 1025,1 11 0 0,0
20.01.2017 22:00:00 -1,1 -1,9 -4,4 2,4 8,9 0 0 7 4 N 1025,3 11 0 0,0
20.01.2017 21:00:00 0,0 -1,3 -3,4 2,4 8,9 2 1 5 3 NNO 1025,1 14 0 0,0
20.01.2017 20:00:00 0,8 -1,0 -2,5 2,5 8,9 0 0 6 4 N 1024,9 16 0 0,0
20.01.2017 19:00:00 3,1 -0,5 -1,1 2,5 8,9 0 0 19 10 N 1024,4 18 0 0,0
20.01.2017 18:00:00 7,1 1,2 6,1 2,4 8,9 11 6 27 15 O 1024,1 20 4 0,0
20.01.2017 17:00:00 7,9 1,5 7,4 2,5 8,9 14 8 29 16 OZO 1023,6 20 6 0,0
20.01.2017 16:00:00 7,1 0,1 8,5 2,5 8,9 6 3 17 9 ONO 1023,9 15 58 0,0
20.01.2017 15:00:00 4,8 0,0 4,8 2,5 8,9 5 3 9 5 N 1024,3 11 7 0,0
20.01.2017 14:00:00 3,1 -0,7 4,4 2,5 9,0 4 2 7 4 N 1024,9 10 22 0,0
20.01.2017 13:00:00 0,6 -1,8 1,6 2,5 9,0 3 1 5 3 NNO 1026,1 8 0 0,0
20.01.2017 12:00:00 -1,2 -3,4 1,4 2,6 9,0 2 1 6 3 N 1026,9 7 12 0,0
20.01.2017 11:00:00 -2,0 -3,4 -2,3 2,6 9,0 2 1 5 3 N 1027,3 6 44 0,0
20.01.2017 10:00:00 -4,9 -5,7 -7,3 2,6 9,0 0 0 4 2 N 1027,0 6 18 0,0
20.01.2017 09:00:00 -6,7 -7,8 -9,6 2,6 9,0 0 0 9 5 N 1026,8 6 0 0,0
20.01.2017 08:00:00 -7,3 -8,4 -9,7 2,7 9,1 4 2 5 3 Z 1026,9 5 0 0,0
20.01.2017 07:00:00 -7,1 -8,0 -9,5 2,7 9,1 0 0 7 4 N 1026,7 6 0 0,0
20.01.2017 06:00:00 -7,1 -8,2 -9,5 2,7 9,1 2 1 3 2 ZZW 1026,8 4,9 0 0,0
20.01.2017 05:00:00 -6,7 -7,9 -9,1 2,7 9,1 0 0 2 1 N 1026,9 6 0 0,0
20.01.2017 04:00:00 -6,5 -7,4 -9,4 2,8 9,1 0 0 5 3 N 1027,6 6 0 0,0
20.01.2017 03:00:00 -6,7 -7,6 -9,4 2,8 9,1 0 0 2 1 N 1027,6 4,6 0 0,0
20.01.2017 02:00:00 -6,6 -7,4 -9,3 2,8 9,1 0 0 4 2 N 1027,6 4,6 0 0,0
20.01.2017 01:00:00 -6,4 -7,2 -9,2 2,8 9,1 4 2 5 3 ZZW 1028,0 5 0 0,0
20.01.2017 00:00:00 -6,2 -7,0 -9,2 2,8 9,2 0 0 3 1 N 1028,5 5 0 0,0
19.01.2017 23:00:00 -5,6 -6,6 -8,8 2,8 9,1 0 0 3 1 N 1028,5 6 0 0,0
19.01.2017 22:00:00 -5,0 -6,0 -8,7 2,9 9,2 0 0 2 1 N 1028,6 6 0 0,0
19.01.2017 21:00:00 -4,5 -5,7 -8,0 2,9 9,2 0 0 0 0 N 1028,7 8 0 0,0
19.01.2017 20:00:00 -3,6 -4,9 -7,5 2,9 9,2 0 0 2 1 N 1028,6 10 0 0,0
19.01.2017 19:00:00 -2,3 -4,5 -5,9 2,9 9,2 0 0 3 2 N 1028,3 14 0 0,0
19.01.2017 18:00:00 0,0 -3,9 -2,0 2,9 9,2 2 1 10 5 O 1028,0 17 25 0,0
19.01.2017 17:00:00 1,6 -4,9 3,1 2,9 9,2 5 3 11 6 O 1027,8 19 60 0,0
19.01.2017 16:00:00 2,1 -4,9 5,1 2,9 9,2 3 1 14 7 O 1027,4 19 60 0,0
19.01.2017 15:00:00 2,0 -5,2 5,1 3,0 9,2 7 4 20 11 O 1027,7 19 60 0,0
19.01.2017 14:00:00 2,1 -5,1 4,6 3,0 9,2 5 3 13 7 ZZO 1027,8 18 60 0,0
19.01.2017 13:00:00 1,0 -5,1 0,7 3,0 9,2 2 1 11 6 WZW 1028,6 19 29 0,0
19.01.2017 12:00:00 0,0 -6,2 1,2 3,1 9,3 7 4 13 7 Z 1029,3 19 46 0,0
19.01.2017 11:00:00 -0,9 -4,8 -1,6 3,1 9,3 0 0 3 2 N 1029,3 10 60 0,0
19.01.2017 10:00:00 -4,4 -5,9 -8,0 3,2 9,3 0 0 3 2 N 1029,1 9 60 0,0
19.01.2017 09:00:00 -8,3 -9,4 -11,2 3,2 9,3 0 0 4 2 N 1029,0 9 4 0,0
19.01.2017 08:00:00 -8,4 -9,5 -11,1 3,3 9,3 0 0 2 1 N 1028,5 8 0 0,0
19.01.2017 07:00:00 -8,3 -9,4 -11,0 3,3 9,3 0 0 4 2 N 1028,5 9 0 0,0
19.01.2017 06:00:00 -8,0 -9,5 -10,3 3,3 9,4 3 2 8 5 ZZW 1028,3 10 0 0,0
19.01.2017 05:00:00 -7,1 -8,5 -9,6 3,4 9,3 7 4 11 6 Z 1028,3 11 0 0,0
19.01.2017 04:00:00 -7,0 -8,5 -9,8 3,4 9,4 6 4 9 5 Z 1028,4 10 0 0,0
19.01.2017 03:00:00 -6,5 -8,3 -7,9 3,5 9,4 9 5 11 6 Z 1028,8 13 0 0,0
19.01.2017 02:00:00 -6,4 -7,9 -9,1 3,5 9,4 8 5 9 5 Z 1028,7 11 0 0,0
19.01.2017 01:00:00 -6,9 -8,4 -9,3 3,5 9,4 5 3 6 3 ZZW 1028,6 11 0 0,0
19.01.2017 00:00:00 -4,8 -6,8 -8,4 3,5 9,4 3 1 4 2 WZW 1028,7 19 0 0,0
18.01.2017 23:00:00 -4,2 -6,3 -7,8 3,5 9,4 0 0 5 3 N 1028,6 16 0 0,0
18.01.2017 22:00:00 -3,1 -6,7 -6,8 3,5 9,4 3 2 5 3 Z 1028,5 20 0 0,0
18.01.2017 21:00:00 -1,7 -6,8 -3,3 3,6 9,4 0 0 6 4 N 1028,6 20 0 0,0
18.01.2017 20:00:00 -1,3 -6,8 -2,1 3,6 9,4 4 2 11 6 ZW 1028,5 20 0 0,0
18.01.2017 19:00:00 -1,2 -7,4 -1,8 3,6 9,4 2 1 9 5 WZW 1028,3 20 0 0,0
18.01.2017 18:00:00 -1,0 -7,0 -1,4 3,6 9,5 4 2 11 6 WNW 1028,0 20 0 0,0
18.01.2017 17:00:00 -0,8 -7,4 -0,8 3,7 9,4 6 3 13 7 WZW 1027,7 20 0 0,0
18.01.2017 16:00:00 -0,6 -7,0 -0,1 3,7 9,5 9 5 13 7 NW 1027,3 20 0 0,0
18.01.2017 15:00:00 -0,4 -6,8 0,5 3,7 9,5 3 2 17 9 WNW 1027,4 20 3 0,0
18.01.2017 14:00:00 -0,1 -6,5 0,8 3,8 9,5 7 4 19 11 WZW 1027,0 20 44 0,0
18.01.2017 13:00:00 -0,4 -6,0 -0,4 3,8 9,5 8 4 17 9 W 1027,1 20 54 0,0
18.01.2017 12:00:00 -0,9 -5,5 0,8 3,9 9,5 6 3 13 7 W 1027,6 19 60 0,0
18.01.2017 11:00:00 -2,2 -6,0 -1,2 4,0 9,5 7 4 10 5 WZW 1028,0 18 60 0,0
18.01.2017 10:00:00 -3,7 -6,6 -7,8 4,0 9,5 5 3 9 5 WZW 1028,2 19 60 0,0
18.01.2017 09:00:00 -6,5 -8,0 -9,9 4,1 9,5 0 0 6 3 N 1028,0 16 3 0,0
18.01.2017 08:00:00 -6,3 -8,0 -9,2 4,2 9,5 3 2 9 5 Z 1027,2 18 0 0,0
18.01.2017 07:00:00 -5,9 -7,7 -9,3 4,3 9,5 3 1 7 4 Z 1027,0 20 0 0,0
18.01.2017 06:00:00 -6,0 -8,1 -9,4 4,4 9,5 3 1 8 4 ZW 1026,9 20 0 0,0
18.01.2017 05:00:00 -6,0 -7,4 -8,9 4,5 9,5 0 0 5 3 N 1027,1 18 0 0,0
18.01.2017 04:00:00 -6,2 -7,9 -9,2 4,5 9,5 4 2 7 4 Z 1027,5 20 0 0,0
18.01.2017 03:00:00 -5,3 -7,7 -8,6 4,6 9,5 0 0 9 5 N 1027,4 20 0 0,0
18.01.2017 02:00:00 -3,7 -7,3 -6,2 4,7 9,5 5 3 11 6 N 1027,3 20 0 0,0
18.01.2017 01:00:00 -2,8 -6,6 -4,8 4,8 9,5 8 4 13 7 NNW 1027,3 20 0 0,0
18.01.2017 00:00:00 -2,1 -6,1 -3,4 4,9 9,6 8 5 17 9 NW 1027,4 20 0 0,0
17.01.2017 23:00:00 -1,6 -6,2 -3,0 4,9 9,5 9 5 15 8 NW 1027,4 20 0 0,0
17.01.2017 22:00:00 -1,0 -6,2 -2,4 5,0 9,5 9 5 16 8 WNW 1027,4 20 0 0,0
17.01.2017 21:00:00 -0,3 -6,1 -1,6 5,1 9,6 9 5 22 12 WNW 1027,3 20 0 0,0
17.01.2017 20:00:00 0,3 -6,4 -1,1 5,1 9,6 11 6 24 13 WNW 1027,2 20 0 0,0
17.01.2017 19:00:00 0,6 -6,1 -0,8 5,1 9,6 10 5 19 11 WNW 1027,1 20 0 0,0
17.01.2017 18:00:00 1,2 -6,2 -0,3 5,1 9,5 10 6 27 15 NW 1026,8 20 24 0,0
17.01.2017 17:00:00 2,6 -5,8 3,4 5,1 9,5 18 10 34 19 NNW 1026,4 20 60 0,0
17.01.2017 16:00:00 3,1 -4,6 4,8 5,0 9,5 21 11 37 20 NNW 1026,3 20 60 0,0
17.01.2017 15:00:00 2,9 -4,6 5,0 5,1 9,5 20 11 39 21 NNW 1026,0 20 60 0,0
17.01.2017 14:00:00 2,4 -3,9 4,5 5,1 9,5 24 13 37 20 NNW 1026,3 20 60 0,0
17.01.2017 13:00:00 1,6 -3,1 3,4 5,2 9,5 18 10 37 20 NW 1027,3 20 60 0,0
17.01.2017 12:00:00 0,5 -3,6 2,1 5,4 9,5 13 7 29 16 NW 1027,4 20 60 0,0
17.01.2017 11:00:00 -0,4 -3,4 -0,1 5,5 9,5 17 9 26 14 NW 1027,8 20 60 0,0
17.01.2017 10:00:00 -1,3 -3,2 -3,1 5,6 9,6 14 7 23 12 NNW 1028,0 18 60 0,0
17.01.2017 09:00:00 -2,1 -3,8 -5,6 5,7 9,5 11 6 19 10 NW 1027,6 20 4 0,0
17.01.2017 08:00:00 -2,5 -4,2 -8,2 5,9 9,6 5 3 12 7 NW 1027,2 20 0 0,0
17.01.2017 07:00:00 -3,3 -4,6 -7,6 6,1 9,6 0 0 7 4 N 1027,1 16 0 0,0
17.01.2017 06:00:00 -2,4 -3,2 -7,9 6,2 9,6 5 3 8 4 N 1026,8 20 0 0,0
17.01.2017 05:00:00 -3,2 -3,7 -7,5 6,4 9,6 3 2 5 3 NNW 1027,0 15 0 0,0
17.01.2017 04:00:00 -3,3 -3,7 -7,2 6,5 9,6 2 1 5 3 Z 1026,9 13 0 0,0
17.01.2017 03:00:00 -3,0 -3,8 -6,0 6,6 9,6 2 1 5 3 ZZO 1027,1 20 0 0,0
17.01.2017 02:00:00 -2,1 -2,8 -5,5 6,7 9,6 0 0 4 2 N 1026,7 11 0 0,0
17.01.2017 01:00:00 -0,6 -1,9 -4,1 6,8 9,6 0 0 5 3 N 1026,4 20 0 0,0
17.01.2017 00:00:00 0,6 -0,9 -1,5 6,9 9,5 5 3 10 6 N 1026,1 20 0 0,0
16.01.2017 23:00:00 2,0 -0,4 0,3 7,0 9,6 8 4 19 10 NNW 1025,6 20 0 0,0
16.01.2017 22:00:00 3,0 0,4 1,9 7,0 9,6 11 6 22 12 N 1025,3 20 0 0,0
16.01.2017 21:00:00 3,8 1,0 2,6 7,0 9,6 13 7 20 11 NNW 1025,0 20 0 0,0
16.01.2017 20:00:00 4,4 1,9 2,7 7,0 9,6 9 5 19 11 NNW 1024,7 20 0 0,0
16.01.2017 19:00:00 5,7 2,7 4,7 7,0 9,6 11 6 22 12 NNW 1024,5 20 0 0,0
16.01.2017 18:00:00 6,4 3,0 5,6 7,0 9,6 15 8 32 17 NW 1023,9 20 0 0,0
16.01.2017 17:00:00 7,4 3,3 7,1 6,9 9,6 16 9 35 19 NW 1023,2 20 0 0,0
16.01.2017 16:00:00 7,9 4,3 7,9 6,8 9,6 24 13 41 22 NNW 1022,9 20 10 0,0
16.01.2017 15:00:00 8,3 5,0 8,0 6,8 9,6 23 13 45 24 NW 1022,4 20 0 0,0
16.01.2017 14:00:00 8,2 6,5 7,9 6,7 9,6 13 7 33 18 NW 1022,6 14 0 0,0
16.01.2017 13:00:00 8,1 6,7 7,5 6,6 9,6 16 9 36 19 WNW 1023,0 19 0 0,6
16.01.2017 12:00:00 8,0 6,8 7,6 6,6 9,6 13 7 37 20 NW 1023,2 4,1 0 0,6
16.01.2017 11:00:00 8,6 6,6 8,5 6,5 9,6 18 10 46 25 WNW 1023,2 20 0 0,0
16.01.2017 10:00:00 8,5 6,6 7,8 6,5 9,6 16 9 30 16 WNW 1023,0 20 0 0,0
16.01.2017 09:00:00 8,2 6,7 7,3 6,4 9,6 16 9 35 19 NW 1022,5 20 0 0,2
16.01.2017 08:00:00 8,0 6,9 7,2 6,4 9,6 13 7 32 18 NW 1022,2 20 0 0,4
16.01.2017 07:00:00 7,9 7,0 7,3 6,4 9,6 11 6 23 13 NW 1022,1 7 0 0,2
16.01.2017 06:00:00 7,9 7,0 7,3 6,4 9,6 11 6 31 17 NW 1021,8 6 0 0,0
16.01.2017 05:00:00 7,8 7,0 6,6 6,4 9,6 13 7 23 12 NW 1022,0 4,0 0 0,2
16.01.2017 04:00:00 6,7 6,3 5,8 6,4 9,6 6 3 13 7 W 1022,3 18 0 0,6
16.01.2017 03:00:00 6,2 5,6 5,5 6,3 9,6 4 2 16 8 ZW 1022,7 3,1 0 1,9
16.01.2017 02:00:00 5,9 5,2 5,4 6,3 9,6 8 4 18 10 WZW 1023,0 7 0 1,6
16.01.2017 01:00:00 6,6 5,2 5,5 6,3 9,6 16 9 31 17 W 1023,8 12 0 0,8
16.01.2017 00:00:00 6,1 5,1 5,4 6,3 9,6 10 6 21 11 W 1024,4 17 0 0,8
15.01.2017 23:00:00 6,1 4,7 5,3 6,3 9,6 10 6 20 11 WNW 1025,1 19 0 0,4
15.01.2017 22:00:00 5,9 4,7 5,0 6,3 9,7 10 5 21 11 WNW 1025,7 19 0 0,6
15.01.2017 21:00:00 5,5 4,5 4,7 6,3 9,6 6 3 13 7 W 1026,3 9 0 0,2
15.01.2017 20:00:00 5,3 4,1 3,8 6,3 9,6 9 5 19 10 W 1026,6 20 0 0,2
15.01.2017 19:00:00 4,4 3,4 3,7 6,2 9,6 0 0 6 3 N 1027,1 20 0 0,0
15.01.2017 18:00:00 4,7 3,4 3,9 6,2 9,6 3 2 17 9 W 1027,4 20 0 0,2
15.01.2017 17:00:00 5,0 3,3 4,5 6,1 9,6 10 6 19 11 WNW 1027,5 20 0 0,2
15.01.2017 16:00:00 5,1 3,6 4,7 6,1 9,7 5 3 21 11 WNW 1027,7 18 0 0,4
15.01.2017 15:00:00 5,2 3,4 4,8 6,0 9,6 13 7 28 15 WNW 1027,9 14 0 0,4
15.01.2017 14:00:00 5,8 3,1 5,7 6,0 9,6 16 8 24 13 WNW 1028,1 19 0 0,0
15.01.2017 13:00:00 5,6 3,6 5,7 6,0 9,6 9 5 21 11 W 1028,5 20 0 0,0
15.01.2017 12:00:00 5,3 3,3 5,5 5,9 9,6 10 6 18 10 W 1029,0 20 0 0,0
15.01.2017 11:00:00 5,0 3,2 4,7 6,0 9,6 6 3 15 8 W 1028,9 20 0 0,0

tt = temperatuur
td = dauwpunt
tt 5cm = temperatuur 5cm
tt -20cm = temperatuur -20cm
tt -100cm = temperatuur -100cm
ff = windsnelheid
fx = windstoten
dd = windrichting
ppp = luchtdruk
vv = zicht
sd = Zonneschijnduur
rr = neerslag

Weerstations in de omgeving